Hector International Airport
KFAR : now visible

Airfield :











YOU CAN JOIN US ON...

 
LOGIN :

Register | Disclaimer

   EN    FR    IT 

 









Legend :    VFR   Marginal VFR   IFR   Intensive IFR   Very Intensive IFR
Visi :
Ceiling :
>= 8 km
>= 3000ft
5 to 8 km
1000 to 3000 ft
1500m to 5 km
500 to 1000 ft
800 to 1500m
200 to 500 ft
< 800m
< 200 ft
Symbols :   Thunderstorms  Fog  Heavy snow  Heavy precipitations  Wind > 20 kt






- Airport Elevation : 902 ft
- IATA code : FAR


KFAR - Hector International

CURRENT METAR :
  • 270253Z AUTO 36011KT 10SM OVC080 M21/M24 A3040 RMK AO2 SLP322 T12061239 53015

EXPIRED METARs :
  • 270153Z AUTO 01013KT 10SM OVC080 M19/M23 A3038 RMK AO2 SLP316 T11941233
  • 270053Z AUTO 36012KT 10SM OVC080 M19/M22 A3036 RMK AO2 SLP309 T11891222

TAF KFAR
Valid from the 27 at 00:00 until the 28 at 00:00 UTC


262333Z 2700/2724 36011KT P6SM OVC060
FM271800 11007KT P6SM BKN035
KZMP FIR / North America



MET'MAP, your aeronautical weather chart ! - Copyright ORBIFLY December 2007 - Disclaimer

ORBIFLY MET'MAP TEAM :

Programming & Development : Alexandra Zaïnal
Concept & original design : Baudouin d'Aumeries
Assistance for programming : Marc-Olivier Méhu
Technical & hardware support : Manuel Goepfert

Contact : metmap@orbifly.com




SOURCES & CREDITS :

   NOAA       Earth
Advisory